Notices

What’s New in latest Release from January 14th 2021:

·       In Historical Hourly Data Report, users can switch between Local Standard Time (LST) and Universal Time Coordinates (UTC) time.

·       In Historical Hourly Data Report, we have an addition of a new column to display hourly precipitation data for the stations where the data are available, from 2001 onwards.

·       Expanded the Search Options of the Canadian Historical Weather Radar, users now able to select 24 hours (1 image every hour) image viewing duration.

Please note that the IDF dataset is available through this link: Intensity-Duration-Frequency (IDF) Files .

Hourly Data Report for November 15, 2019

QUALICUM BEACH AIRPORT
BRITISH COLUMBIA
Current Station Operator: ECCC - MSC

49°20'14.000" N
124°23'38.000" W
58.20 m
1026562
71766
VOQ

Download Data

Hourly Data (November 2019)
Hourly Data Report for November 15, 2019
TIME
LST
Temp Definition
°C
Dew Point Definition
°C
Rel Hum Definition
%
Precip. Amount Definition
mm

Wind Dir Definition
10's deg

Wind Spd Definition
km/h
Visibility Definition
km
Stn Press Definition
kPa
Hmdx Definition


Wind Chill Definition


Weather Definition


00:00 7.6 7.2 97 LegendMM 23 4   100.57     LegendNANA
01:00 7.2 6.7 97 LegendMM 20 2   100.52     LegendNANA
02:00 7.6 7.2 97 LegendMM 31 6   100.47     LegendNANA
03:00 7.9 7.5 97 LegendMM 14 7   100.40     LegendNANA
04:00 8.8 8.1 95 LegendMM 13 16   100.35     LegendNANA
05:00 8.9 8.1 94 LegendMM 11 9   100.36     LegendNANA
06:00 8.8 7.9 94 LegendMM 16 3   100.39     LegendNANA
07:00 8.5 7.9 97 LegendMM 15 10   100.42     LegendNANA
08:00 8.8 8.3 97 LegendMM 10 7   100.50     LegendNANA
09:00 9.0 8.5 97 LegendMM 27 3   100.58     LegendNANA
10:00 9.7 9.1 96 LegendMM 35 2   100.69     LegendNANA
11:00 9.8 9.2 96 LegendMM 9 6   100.83     LegendNANA
12:00 10.0 9.3 95 LegendMM 9 6   100.89     LegendNANA
13:00 10.7 9.6 93 LegendMM 8 6   100.96     LegendNANA
14:00 11.4 9.7 89 LegendMM 8 3   101.03     LegendNANA
15:00 11.4 9.7 89 LegendMM 9 4   101.09     LegendNANA
16:00 10.1 8.7 92 LegendMM 11 2   101.19     LegendNANA
17:00 8.5 7.9 96 LegendMM 29 2   101.27     LegendNANA
18:00 7.7 7.2 97 LegendMM 25 3   101.34     LegendNANA
19:00 7.3 6.9 97 LegendMM 24 1   101.40     LegendNANA
20:00 7.0 6.7 98 LegendMM 26 4   101.47     LegendNANA
21:00 5.8 5.5 98 LegendMM 25 1   101.54     LegendNANA
22:00 5.3 5.0 98 LegendMM   0   101.60     LegendNANA
23:00 4.4 4.2 98 LegendMM 16 3   101.65     LegendNANA

Notes on Data Quality.

Legend

  • E = Estimated
  • M = Missing
  • NA = Not Available*
  • [empty] = Indicates an unobserved value
Date modified: